SCP
0 0 0 0 0 0 0 0 0 0 0 0 0 0 0 0 0 0 0 0 0 0 1 1 1 1 1 1 1 1 1 1 1 1 1 1 1 1 1 1 1 1 1
0 0 0 0 0 0 0 0 0 0 0 0 0 0 0 0 0 0 0 0 0 0 0 1 1 1 1 1 1 1 1 1 1 1 1 1 1 1 1 1 1 1 0
0 0 0 0 0 0 0 0 0 0 0 0 0 0 0 0 0 0 0 0 0 0 0 0 0 1 1 1 1 1 1 1 1 1 1 1 1 1 1 1 1 1 0
0 0 0 0 0 0 0 0 0 0 0 0 0 0 0 0 0 0 0 0 0 0 0 0 0 1 1 1 1 1 1 1 1 1 1 1 1 1 1 1 1 1 1
0 0 0 0 0 0 0 0 0 0 0 0 0 0 0 0 0 0 0 0 0 0 0 0 0 0 1 1 1 1 1 1 1 1 1 1 1 1 1 1 1 1 1
0 0 0 0 0 0 0 0 0 0 0 0 0 0 0 0 0 0 0 0 0 0 0 0 0 0 0 1 1 1 1 1 1 1 1 1 1 1 1 1 1 1 1
0 0 0 0 0 0 0 0 0 0 0 0 0 0 0 0 0 0 0 0 0 0 0 0 0 0 0 0 0 1 1 1 1 1 1 1 1 1 1 1 1 1 1
0 0 0 0 0 0 0 0 0 0 0 0 0 0 0 0 0 0 0 0 0 0 0 0 0 0 0 0 0 0 0 1 1 1 1 1 1 1 1 1 1 1 1
0 0 0 0 0 0 0 0 0 0 0 0 0 0 0 0 0 0 0 0 0 0 0 0 0 0 0 0 0 0 0 0 1 1 1 1 1 1 1 1 1 1 1
0 0 0 0 0 0 0 0 0 0 0 0 0 0 0 0 0 0 0 0 0 0 0 0 0 0 0 0 0 0 0 0 0 1 1 1 1 1 1 1 1 1 1
0 0 0 0 0 0 0 0 0 0 0 0 0 0 0 0 0 0 0 0 0 0 0 0 0 0 0 0 0 0 0 0 0 0 0 1 1 1 1 1 1 1 1
0 0 0 0 0 0 0 0 0 0 0 0 0 0 0 0 0 0 0 0 0 0 0 0 0 0 0 0 0 0 0 0 0 0 0 0 1 1 1 1 1 1 1
0 0 0 0 0 0 0 0 0 0 0 0 0 0 0 0 0 0 0 0 0 0 0 0 0 0 0 0 0 0 0 0 0 0 0 0 0 0 0 0 0 0 1
0 0 0 0 0 0 0 0 0 0 0 0 0 0 0 0 0 0 0 0 0 0 0 0 0 0 0 0 0 0 0 0 0 0 0 0 0 0 0 0 0 0 0
0 0 0 0 0 0 0 0 0 0 0 0 0 0 0 0 0 0 0 0 0 0 0 0 0 0 0 0 0 0 0 0 0 0 0 0 0 0 0 0 0 0 0
0 0 0 0 0 0 0 0 0 0 0 0 0 0 0 0 0 0 0 0 0 0 0 0 0 0 0 0 0 0 0 0 0 0 0 0 0 0 0 0 0 0 0
0 0 0 0 0 0 0 0 0 0 0 0 0 0 0 0 0 0 0 0 0 0 0 0 0 0 0 0 0 0 0 0 0 0 0 0 0 0 0 0 0 0 0
0 0 0 0 0 0 0 0 0 0 0 0 0 0 0 0 0 0 0 0 0 0 0 0 0 0 0 0 0 0 0 0 0 0 0 0 0 0 0 0 0 0 0
0 0 0 0 0 0 0 0 0 0 0 0 0 0 0 0 0 0 0 0 0 0 0 0 0 0 0 0 0 0 0 0 0 0 0 0 0 0 0 0 0 0 0
0 0 0 0 0 0 0 0 0 0 0 0 0 0 0 0 0 0 0 0 0 0 0 0 0 0 0 0 0 0 0 0 0 0 0 0 0 0 0 0 0 0 0
0 0 0 0 0 0 0 0 0 0 0 0 0 0 0 0 0 0 0 0 0 0 0 0 0 0 0 0 0 0 0 0 0 0 0 0 0 0 0 0 0 0 0
0 0 0 0 0 0 0 0 0 0 0 0 0 0 0 0 0 0 0 0 0 0 0 0 0 0 0 0 0 0 0 0 0 0 0 0 0 0 0 0 0 0 0
0 0 0 0 0 0 0 0 0 0 0 0 0 0 0 0 0 0 0 0 0 0 0 0 0 0 0 0 0 0 0 0 0 0 0 0 0 0 0 0 0 0 0
0 0 0 0 0 0 0 0 0 0 0 0 0 0 0 0 0 0 0 0 0 0 0 0 0 0 0 0 0 0 0 0 0 0 0 0 0 0 0 0 0 0 0
0 0 0 0 0 0 0 0 0 0 0 0 0 0 0 0 0 0 0 0 0 0 0 0 0 0 0 0 0 0 0 0 0 0 0 0 0 0 0 0 0 0 0
0 0 0 0 0 0 0 0 0 0 0 0 0 0 0 0 0 0 0 0 0 0 0 0 0 0 0 0 0 0 0 0 0 0 0 0 0 0 0 0 0 0 0
Wind_Speed
2 2 2 1 2 1 1 2 2 3 3 3 3 4 4 4 4 4 3 9 10 10 10 10 9 9 8 7 7 8 8 9 9 10 10 10 9 8 8 8 9 8 9
2 2 2 2 2 2 2 1 2 2 2 2 3 3 4 3 4 4 3 5 9 10 10 10 10 10 9 9 9 8 8 9 9 9 10 10 11 10 9 9 9 9 9
2 2 1 2 2 2 2 2 2 2 2 2 2 3 2 3 3 4 3 3 4 7 9 9 10 10 9 9 9 8 8 9 9 9 10 10 10 10 10 10 10 10 9
2 2 1 1 1 2 2 1 1 1 2 2 2 2 2 2 3 3 3 3 3 3 5 8 9 9 9 9 9 9 9 10 10 10 10 10 10 10 10 10 10 11 10
2 1 1 1 1 1 2 2 1 1 1 2 1 1 1 1 2 3 3 3 3 3 3 6 8 8 9 9 9 10 10 10 10 10 10 11 11 11 11 11 11 11 11
2 1 1 1 1 1 2 2 2 2 1 1 1 1 1 1 2 2 2 2 3 3 3 4 4 5 9 10 10 10 10 10 10 10 11 11 11 11 11 12 12 11 11
1 1 1 1 1 1 1 1 1 2 2 2 1 1 1 1 2 2 2 2 3 3 3 4 3 3 4 8 10 11 11 11 11 11 11 11 11 12 12 12 12 12 12
1 1 1 1 1 1 1 1 1 1 1 2 1 0 1 1 2 2 2 2 3 2 3 4 4 4 3 3 6 10 11 11 11 12 12 12 12 12 13 13 13 13 13
1 1 1 1 1 1 1 1 1 1 0 1 1 1 0 1 1 1 2 2 2 2 2 2 3 3 3 3 3 7 10 11 11 12 12 12 13 13 13 14 14 14 14
1 1 1 1 1 1 1 1 1 1 1 0 1 1 1 1 1 1 2 1 2 2 2 2 2 2 3 2 4 8 9 10 11 12 12 13 13 13 14 14 14 14 15
1 1 1 1 1 1 1 1 1 1 1 0 0 0 1 1 0 1 2 2 2 1 2 2 1 2 2 2 2 5 9 10 11 12 13 13 13 14 14 15 15 15 15
1 1 1 1 1 0 1 1 1 1 1 1 0 0 0 0 1 1 1 2 2 2 2 1 1 1 1 2 3 7 9 10 11 12 13 13 14 14 15 15 16 16 16
1 1 1 1 1 0 1 1 1 1 0 0 0 0 0 0 0 0 1 1 2 2 1 1 1 0 2 1 2 8 8 10 12 13 13 13 14 14 15 15 16 16 17
2 2 1 1 1 1 1 1 1 0 1 1 0 1 0 0 0 0 1 1 2 2 2 2 1 0 1 2 4 8 5 10 12 13 13 14 14 14 15 15 16 16 17
1 2 2 2 1 1 1 1 1 0 1 1 1 1 1 0 0 0 0 1 1 2 3 2 1 1 2 2 5 4 4 10 12 13 14 14 14 15 15 16 16 16 17
2 2 2 2 2 1 1 1 1 1 1 1 1 1 1 0 0 0 0 0 1 2 3 3 2 3 3 4 6 4 5 11 11 13 14 14 15 15 15 16 16 17 17
2 2 2 2 2 2 2 2 2 1 1 1 1 1 1 1 1 0 0 0 1 1 3 4 3 3 3 4 5 4 4 5 6 11 14 14 15 15 16 16 16 16 17
3 3 3 3 2 2 2 2 2 2 2 1 1 1 1 1 1 1 1 1 1 1 2 5 4 3 4 4 4 5 5 5 5 10 13 14 15 15 16 16 16 16 16
3 2 2 3 2 2 2 2 2 2 2 2 2 2 1 1 1 1 1 1 1 2 2 3 5 4 4 3 4 5 5 4 5 7 11 12 14 15 16 16 15 15 15
3 3 2 2 2 2 2 2 2 2 2 2 1 1 1 2 2 2 2 2 1 2 2 3 4 4 4 3 3 4 5 4 5 5 7 9 12 14 15 15 14 14 15
3 3 3 2 2 2 2 3 3 3 2 2 1 1 2 2 2 2 2 2 2 2 2 3 4 4 4 4 4 3 5 6 6 4 5 6 6 6 7 10 12 14 15
3 3 3 3 3 2 3 4 3 3 3 3 2 2 2 2 2 2 3 3 3 3 4 4 4 5 6 5 4 4 5 6 6 3 5 7 5 6 6 5 11 15 15
3 3 3 3 3 3 4 4 4 3 3 2 2 2 2 2 2 2 3 4 4 6 6 5 6 6 6 5 4 5 5 5 6 5 5 7 5 6 6 7 15 15 15
3 3 3 3 3 3 4 4 4 3 2 2 3 3 3 2 3 3 2 3 4 4 6 5 5 6 5 4 4 4 5 5 6 4 3 5 5 6 6 6 12 14 15
3 3 2 3 3 3 4 4 4 2 2 2 2 2 3 3 4 4 3 3 4 4 5 6 7 7 8 8 5 3 3 4 5 4 1 3 5 6 6 5 7 12 14
3 3 2 2 3 3 4 5 5 2 2 2 2 2 3 3 4 4 3 3 5 5 3 4 5 7 6 7 7 4 3 4 4 5 2 2 3 5 6 5 5 5 7
Wind_Direction
26 17 23 30 19 20 21 20 27 31 32 32 36 39 40 46 45 50 41 39 37 34 31 32 30 29 27 27 26 31 33 32 30 29 26 21 14 10 8 4 360 355 351
31 23 19 14 17 14 11 29 29 35 36 43 43 38 38 44 50 52 56 42 39 32 29 30 26 24 24 28 29 31 32 31 28 26 23 21 17 12 2 357 351 346 342
32 36 24 15 7 7 17 34 28 46 46 47 46 41 45 52 55 48 48 48 40 35 29 27 20 17 16 19 18 20 24 27 25 21 17 14 10 5 4 360 350 341 336
39 39 17 6 7 19 15 31 39 43 42 38 34 38 49 55 60 58 51 46 44 36 27 28 20 14 12 13 13 15 17 20 18 13 10 6 2 359 355 352 350 348 342
39 41 358 4 32 35 28 20 34 46 50 34 30 38 45 68 75 67 59 53 51 43 28 22 21 18 13 11 11 11 11 9 7 5 4 360 356 353 350 345 344 341 338
33 32 5 10 40 56 38 34 34 31 45 29 25 39 62 91 89 76 62 55 53 44 32 24 17 21 23 16 11 8 5 3 0 358 359 356 352 348 345 342 339 337 335
29 44 8 12 33 65 59 47 57 54 37 17 38 31 27 82 83 77 68 59 49 43 39 30 26 27 19 15 10 7 3 1 360 358 355 351 347 344 342 339 336 334 333
33 30 29 27 34 58 69 53 67 52 31 16 28 22 11 9 17 57 70 68 55 41 38 30 28 29 22 21 12 9 4 360 358 356 353 349 345 343 341 339 337 335 333
62 71 47 42 40 67 84 67 81 75 63 348 29 50 116 246 322 342 31 57 51 41 27 19 22 18 16 26 12 5 360 356 353 351 347 345 343 340 339 337 336 334 331
106 77 66 59 55 68 72 49 59 75 126 4 356 13 30 145 139 310 323 15 29 24 9 358 3 5 16 24 12 3 357 352 348 345 342 341 339 337 335 334 332 331 329
134 114 100 86 73 81 86 65 49 49 70 105 73 344 348 349 43 188 278 313 334 335 334 334 344 353 12 19 6 352 351 346 343 340 338 336 335 333 333 332 329 327 326
146 132 110 103 97 102 104 99 88 67 57 42 21 66 134 172 233 203 254 293 303 297 299 307 322 331 355 6 351 345 340 337 335 334 333 332 330 329 328 327 326 325 323
164 177 135 125 113 98 93 100 101 103 115 145 189 188 92 168 214 186 193 284 302 299 285 283 281 318 347 351 333 334 331 327 326 325 325 325 324 324 323 323 322 322 321
173 151 140 134 139 135 130 117 121 147 124 165 168 125 100 35 84 168 173 196 305 300 285 277 285 267 344 326 320 327 321 320 317 318 319 319 319 319 319 319 319 319 319
158 141 140 137 129 127 132 126 121 133 129 140 146 137 140 116 60 63 129 153 187 274 291 280 292 310 321 308 314 314 309 310 311 313 314 315 316 316 316 317 317 317 317
151 148 145 150 148 135 133 136 128 130 135 126 126 127 131 137 128 76 167 271 221 224 266 285 286 299 308 307 310 309 300 311 308 310 311 312 312 312 313 313 314 314 314
148 153 152 148 150 146 154 149 141 137 136 125 121 136 173 148 146 171 170 219 254 236 258 284 289 301 299 304 311 306 299 296 299 304 307 308 308 310 310 310 310 311 312
156 157 151 146 155 155 154 156 157 151 153 162 170 164 190 175 188 214 200 223 242 246 250 282 296 299 293 298 303 304 307 305 300 302 308 310 310 311 311 310 309 312 313
156 154 146 151 159 160 158 160 158 151 154 167 173 175 194 174 203 215 211 223 246 270 268 274 289 294 294 298 309 306 306 303 304 308 311 312 312 313 311 309 309 312 313
156 155 152 160 161 162 159 159 159 155 159 171 176 181 194 195 204 207 223 231 251 271 273 276 283 292 292 300 307 310 315 316 310 310 307 310 309 310 310 309 309 309 309
161 156 155 161 161 165 171 167 165 165 170 178 184 200 206 215 225 227 237 241 245 252 267 273 278 289 294 308 307 308 306 312 306 301 312 308 307 305 307 305 305 304 308
158 158 170 171 173 183 168 171 163 169 180 184 196 208 213 209 230 254 272 276 264 254 260 264 275 279 284 290 298 301 305 315 311 316 321 307 304 301 301 297 301 306 309
164 168 176 170 177 180 175 176 181 174 184 194 204 211 227 222 215 226 256 276 280 278 268 261 265 269 278 282 287 289 291 291 288 301 318 299 301 298 300 304 307 306 310
172 176 179 177 176 186 183 184 185 185 195 214 218 215 217 226 225 232 236 255 265 271 273 267 262 270 276 283 273 274 283 291 289 287 295 287 301 302 307 303 301 304 310
172 176 171 173 181 194 189 191 185 183 209 232 232 226 224 229 242 244 237 253 272 275 283 279 276 279 287 294 300 306 301 302 298 296 288 281 301 312 304 291 295 306 312
177 172 177 183 190 200 197 196 192 189 212 233 238 238 237 239 254 247 233 242 264 276 287 296 289 289 286 287 288 273 265 273 285 291 289 300 301 327 312 296 301 307 308